Flag for U.S.A. Weather past 2 weeks in Charlotte, North Carolina, U.S.A.

Now
85 °F

Scattered clouds.


Feels Like: 84 °F
Forecast: 63 / 86 °F
Wind: 8 mph from Southeast

Location: Charlotte / Douglas International Airport

Current Time: Aug 28, 2015 at 3:22:55 PM

Latest Report: Aug 28, 2015 at 2:52 PM


Visibility: 10 mi

Pressure: 30.14 "Hg

Humidity: 37%

Dew point: 56 °F

Location of CharlotteLocation

Historic Weather in Charlotte — Graph

°F

Charlotte temperature yesterday

Maximum temperature yesterday: 83 °F (at 1:52 PM)
Minimum temperature yesterday: 67 °F (at 3:52 AM)
Average temperature yesterday: 76 °F

Past Weeks' High & Low Weather Summary

 TemperatureHumidityPressure
High92 °F (Aug 16, 4:52 PM)94% (Aug 19, 1:52 AM)30.21 "Hg (Aug 19, 1:52 AM)
Low63 °F (Aug 28, 5:52 AM)31% (Aug 13, 4:52 PM)29.84 "Hg (Aug 24, 6:52 PM)
Average79 °F64%30.02 "Hg
* Reported Aug 13 1:52 PM — Aug 28 1:52 PM, Charlotte, Weather by CustomWeather, © 2015

Note: Actual official high and low records may vary slightly from our data, if they occured in-between our weather recording intervals... More about our weather records

Advertising

Charlotte weather history for previous 24 hours

 ConditionsComfort  
Time TempWeatherWind HumidityBarometerVisibility
1:52 PM
Fri, Aug 28
84 °FPassing clouds.7 mph37%30.16 "Hg10 mi
12:52 PM81 °FScattered clouds.5 mph42%30.19 "Hg10 mi
11:52 AM80 °FScattered clouds.6 mph42%30.21 "Hg10 mi
10:52 AM78 °FScattered clouds.8 mph45%30.19 "Hg10 mi
9:52 AM74 °FScattered clouds.8 mph57%30.19 "Hg10 mi
8:52 AM70 °FScattered clouds.5 mph73%30.18 "Hg10 mi
7:52 AM65 °FPassing clouds.6 mph87%30.16 "Hg10 mi
6:52 AM63 °FPassing clouds.3 mph90%30.13 "Hg10 mi
5:52 AM63 °FClear.3 mph90%30.11 "Hg10 mi
4:52 AM64 °FClear.6 mph87%30.11 "Hg10 mi
3:52 AM66 °FClear.3 mph81%30.11 "Hg10 mi
2:52 AM70 °FClear.3 mph73%30.10 "Hg10 mi
1:52 AM71 °FClear.5 mph68%30.10 "Hg10 mi
12:52 AM72 °FPassing clouds.7 mph66%30.11 "Hg10 mi
11:52 PM
Thu, Aug 27
74 °FPassing clouds.9 mph62%30.10 "Hg10 mi
10:52 PM76 °FPassing clouds.9 mph58%30.09 "Hg10 mi
9:52 PM77 °FPassing clouds.7 mph54%30.08 "Hg10 mi
8:52 PM79 °FScattered clouds.6 mph48%30.05 "Hg10 mi
7:52 PM80 °FScattered clouds.7 mph47%30.03 "Hg10 mi
6:52 PM82 °FBroken clouds.9 mph44%30.03 "Hg10 mi
5:52 PM82 °FBroken clouds.7 mph48%30.02 "Hg10 mi
4:52 PM83 °FPartly sunny.8 mph44%30.02 "Hg10 mi
3:52 PM83 °FPartly sunny.9 mph48%30.03 "Hg10 mi
Weather by CustomWeather, © 2015

See weather overviewHow to use our weather pages